Flag for Germany Weather past 2 weeks in Falkensee, Brandenburg, Germany

Now
34 °F

Clear.


Feels Like: 31 °F
Forecast: 35 / 56 °F
Wind: 3 mph from Northwest

Location: Berlin-Tegel

Current Time: Apr 18, 2015 at 7:05:38 AM

Latest Report: Apr 18, 2015 at 6:20 AM


Visibility: 10 mi

Pressure: 30.24 "Hg

Humidity: 93%

Dew point: 32 °F

Location of FalkenseeLocation

Historic Weather in Falkensee — Graph

°F

Falkensee temperature yesterday

Maximum temperature yesterday: 54 °F (at 4:20 PM)
Minimum temperature yesterday: 34 °F (at 4:20 AM)
Average temperature yesterday: 44 °F

Past Weeks' High & Low Weather Summary

 TemperatureHumidityPressure
High73 °F (Apr 15, 3:50 PM)100% (Apr 4, 7:50 AM)30.54 "Hg (Apr 4, 7:50 AM)
Low27 °F (Apr 5, 3:20 AM)22% (Apr 5, 3:50 PM)29.80 "Hg (Apr 15, 6:50 PM)
Average48 °F62%30.18 "Hg
* Reported Apr 3 6:20 AM — Apr 18 6:20 AM, Falkensee, Weather by CustomWeather, © 2015

Note: Actual official high and low records may vary slightly from our data, if they occured in-between our weather recording intervals... More about our weather records

Advertising

Falkensee weather history for previous 24 hours

 ConditionsComfort  
Time TempWeatherWind HumidityBarometerVisibility
6:20 AM
Sat, Apr 18
34 °FClear.3 mph93%30.24 "Hg10 mi
5:50 AM36 °FClear.3 mph93%30.21 "Hg10 mi
5:20 AM36 °FClear.5 mph93%30.21 "Hg10 mi
4:50 AM36 °FClear.5 mph93%30.21 "Hg10 mi
4:20 AM36 °FClear.5 mph93%30.18 "Hg10 mi
3:50 AM37 °FClear.5 mph87%30.18 "Hg10 mi
3:20 AM37 °FClear.5 mph87%30.18 "Hg10 mi
2:50 AM37 °FClear.5 mph87%30.18 "Hg10 mi
2:20 AM37 °FClear.6 mph87%30.15 "Hg10 mi
1:50 AM39 °FClear.6 mph87%30.15 "Hg10 mi
1:20 AM39 °FPassing clouds.6 mph87%30.15 "HgN/A
12:50 AM41 °FPassing clouds.6 mph81%30.12 "HgN/A
12:20 AM41 °FPassing clouds.7 mph81%30.12 "HgN/A
11:50 PM
Fri, Apr 17
41 °FPassing clouds.7 mph81%30.09 "HgN/A
11:20 PM43 °FClear.7 mph76%30.09 "Hg10 mi
10:50 PM43 °FClear.7 mph76%30.09 "Hg10 mi
10:20 PM43 °FClear.6 mph76%30.07 "Hg10 mi
9:50 PM45 °FClear.7 mph71%30.07 "Hg10 mi
9:20 PM45 °FSprinkles. Partly cloudy.6 mph71%30.04 "HgN/A
8:50 PM45 °FScattered showers. Broken clouds.6 mph71%30.04 "HgN/A
8:20 PM45 °FSprinkles. Broken clouds.12 mph71%30.04 "HgN/A
7:50 PM48 °FSprinkles. Broken clouds.9 mph58%30.01 "HgN/A
7:20 PM48 °FScattered showers. Broken clouds.14 mph58%30.01 "HgN/A
6:50 PM54 °FSprinkles. Scattered clouds.12 mph33%29.98 "HgN/A
6:20 PM54 °FSprinkles. Scattered clouds.8 mph35%29.98 "HgN/A
5:50 PM52 °FSunny.8 mph38%29.95 "Hg10 mi
5:20 PM54 °FPassing clouds.9 mph38%29.98 "HgN/A
4:50 PM52 °FSunny.10 mph41%29.98 "Hg10 mi
4:20 PM54 °FSunny.12 mph41%29.95 "Hg10 mi
3:50 PM52 °FSunny.10 mph44%29.98 "Hg10 mi
3:20 PM52 °FScattered clouds.9 mph47%29.98 "HgN/A
2:50 PM50 °FPartly sunny.12 mph50%29.98 "HgN/A
2:20 PM50 °FPartly sunny.9 mph50%29.98 "HgN/A
1:50 PM50 °FBroken clouds.7 mph54%29.98 "HgN/A
1:20 PM48 °FLight rain. Broken clouds.9 mph62%29.98 "HgN/A
12:50 PM48 °FBroken clouds.8 mph58%29.98 "HgN/A
12:20 PM46 °FLight rain. Broken clouds.9 mph66%29.98 "HgN/A
11:50 AM46 °FBroken clouds.8 mph66%29.98 "HgN/A
11:20 AM46 °FBroken clouds.10 mph66%29.98 "HgN/A
10:50 AM46 °FPartly sunny.8 mph62%29.98 "HgN/A
10:20 AM46 °FScattered clouds.7 mph71%29.98 "HgN/A
9:50 AM45 °FBroken clouds.6 mph76%29.95 "HgN/A
9:20 AM43 °FPartly sunny.6 mph81%29.95 "HgN/A
8:50 AM41 °FBroken clouds.7 mph81%29.95 "HgN/A
8:20 AM39 °FPartly sunny.7 mph87%29.95 "HgN/A
7:50 AM39 °FPartly sunny.7 mph87%29.95 "HgN/A
7:20 AM39 °FSunny.7 mph87%29.95 "Hg10 mi
Weather by CustomWeather, © 2015

See weather overviewHow to use our weather pages